Dewpoint
3 3 3 3 3 3 4 4 1 1 1 2 1 1 0 1 -1 1 3 3 1 6 6 6 4 8 8 8 8 8 8 9 8 8 6 7 6 5 4 1 3 9 12 11 13
2 2 3 3 3 3 2 3 1 1 0 2 2 1 0 -0 0 1 0 2 1 3 7 7 3 6 7 8 7 8 8 7 5 6 7 7 6 6 5 1 10 12 13 13 14
1 2 3 2 3 2 1 1 0 -1 0 2 2 0 -0 -1 -2 -1 1 1 2 3 5 7 7 5 7 8 8 9 8 5 5 6 7 7 7 6 5 1 2 4 14 14 14
2 1 3 3 3 1 -1 -2 -2 0 1 0 -0 -1 -2 -2 -3 3 4 0 2 4 5 6 6 5 7 8 7 8 8 6 6 8 7 8 7 7 6 4 5 2 11 13 12
2 2 2 2 1 -4 2 0 1 0 -1 -2 -2 -3 -1 -1 -4 1 1 4 3 5 4 6 6 5 6 7 7 6 5 7 6 7 8 7 6 6 6 5 4 4 8 10 10
2 2 2 2 -1 -6 -7 -0 -2 -3 -3 -3 -1 -1 -1 -0 -3 -2 -2 2 3 3 3 4 5 4 5 7 7 6 5 5 8 8 6 6 6 6 5 4 3 4 9 8 9
1 2 2 2 0 1 -2 -6 -1 -3 -2 -3 -4 -3 -2 -3 -2 -1 -3 -0 1 2 2 2 6 4 6 6 6 5 8 7 8 7 7 6 7 7 5 5 4 3 9 10 10
2 2 2 1 1 -1 -1 -1 -4 -4 -2 -1 -0 -2 -4 -2 -1 -2 -1 -1 1 2 1 3 6 4 5 5 6 6 6 8 6 6 7 5 7 6 4 5 5 4 2 9 10
2 0 2 2 0 0 -2 -1 -6 -6 -5 -3 -2 -2 -4 -1 -1 -2 -0 -1 1 1 1 4 5 5 5 6 6 6 8 6 7 5 7 7 7 3 5 5 6 4 3 -0 3
2 1 1 1 -1 0 -2 -1 -3 -5 -1 -0 -1 -1 -2 -1 -2 -2 1 -0 3 4 3 5 5 5 4 5 7 7 6 6 7 6 7 8 6 4 5 6 5 4 3 -0 -1
2 1 -2 1 -1 -1 -3 1 -1 1 1 0 0 -1 -1 -2 -3 -0 0 0 2 4 4 3 5 5 5 4 3 4 4 5 3 4 5 6 6 2 7 5 5 4 1 -1 -1
1 -0 -6 1 -2 -1 -4 -1 -2 -2 -2 -0 -1 -1 -1 -2 -2 0 1 1 2 3 3 6 5 3 4 4 3 4 4 4 3 3 4 4 5 4 3 3 2 0 -0 -1 -1
-1 -3 -12 -2 -1 -1 -2 -4 -2 -1 -0 1 0 1 -0 -1 -1 1 1 1 2 3 4 5 5 3 4 5 5 4 4 4 4 3 1 4 6 6 4 4 1 -0 -1 -2 -2
-8 -9 -8 -2 0 0 0 -2 -2 -1 1 2 1 0 1 0 0 0 1 1 1 3 4 6 4 4 5 6 4 6 2 2 3 4 7 2 7 4 3 2 0 0 -0 -0 -2
-11 -12 -4 -1 0 0 0 -1 0 -0 3 3 2 2 1 2 1 1 1 1 2 3 3 6 5 6 6 5 2 4 1 2 2 2 2 2 5 3 -2 2 1 -0 -0 -1 -1
-10 -11 -2 0 1 1 0 -0 1 -3 1 3 3 3 1 1 1 1 2 4 3 3 3 4 3 4 4 3 3 1 2 2 3 3 6 3 4 4 0 -2 -3 -2 -1 -1 -1
-11 -4 0 1 2 1 0 1 -3 0 -0 4 3 2 3 4 2 2 3 3 4 5 5 6 6 5 3 5 4 1 3 5 6 5 6 1 3 3 -1 -4 -4 -4 -4 -2 -1
-10 -1 1 2 2 1 1 -2 1 1 2 3 4 4 5 4 4 3 3 4 4 3 5 7 7 5 4 3 4 3 2 3 5 6 5 1 5 2 -2 -3 -3 -4 -4 -4 -2
-3 1 2 2 2 2 1 -3 -1 -2 0 3 3 3 4 5 5 4 4 4 4 4 5 5 6 4 5 4 3 5 6 -1 0 -0 1 2 0 -3 -4 -3 -3 -3 -2 -3 -3
-0 2 2 2 2 2 -2 0 -2 -2 1 2 4 3 5 4 5 5 5 4 5 4 0 2 6 4 4 4 4 4 1 4 0 2 4 2 1 0 -3 -3 -3 -1 1 -1 -0
1 2 2 3 2 2 -2 -1 0 1 1 3 3 2 3 5 4 3 2 2 3 3 0 1 3 6 4 5 5 6 5 3 1 0 3 3 0 -4 -4 -6 -4 -2 1 1 1
1 -1 3 3 1 -0 0 1 1 2 2 2 2 2 1 1 2 2 2 1 2 2 3 1 2 5 5 3 3 4 5 2 2 2 -1 -1 0 -6 -5 -5 -3 -0 1 2 3
-0 1 1 3 -0 0 1 2 2 2 2 2 0 -1 -1 0 3 2 1 0 0 2 2 1 2 5 5 3 3 5 5 3 0 -0 -1 2 2 -6 -4 -2 -0 0 1 3 3
-2 -2 -1 1 0 1 1 2 3 2 1 -0 -1 -2 -1 0 1 2 2 1 -1 -0 0 -0 1 1 2 1 3 5 5 5 3 6 3 1 -0 -2 -4 -3 -1 0 1 2 3
-5 -2 -2 -2 -1 -0 1 2 3 3 0 -0 -1 1 -0 1 1 2 1 1 -1 0 -0 -1 2 0 0 2 1 3 4 5 6 4 5 3 1 -1 -3 -4 -3 -1 -0 1 2
-7 -5 -4 -4 -2 -0 -0 0 3 2 2 2 2 2 0 -0 -1 1 1 1 0 -1 0 -1 1 -0 1 1 1 2 2 4 4 4 4 3 3 -2 -3 -4 -3 -3 0 1 1
-8 -5 -3 -3 -4 -0 -2 -2 1 1 2 2 2 1 1 1 -0 -1 -1 -1 -1 -1 0 -1 0 -0 0 0 -0 0 0 1 3 3 4 5 3 -2 -3 -3 -3 -2 -1 -0 0
Wind_Speed
17 18 20 24 24 24 22 21 19 17 16 15 14 12 10 9 11 14 16 14 20 9 8 14 18 12 11 9 14 9 3 6 8 6 3 4 6 11 11 13 3 3 5 9 26
17 20 21 22 23 21 20 16 16 15 13 11 12 9 8 10 9 13 18 14 12 19 6 10 18 15 8 7 6 3 7 10 5 4 4 4 7 12 10 17 7 4 6 21 26
16 18 21 22 22 20 16 13 11 11 6 9 9 6 6 6 6 1 8 22 11 11 12 7 15 16 8 8 7 5 15 7 6 7 3 3 6 8 10 4 12 20 7 24 26
17 15 19 19 20 19 17 11 9 4 2 5 7 6 4 2 3 2 8 17 12 13 12 9 13 10 5 5 10 5 10 6 4 5 4 4 5 10 5 7 20 19 12 21 21
16 17 17 20 18 16 14 10 7 5 3 1 2 3 1 3 6 2 4 15 19 17 17 12 12 9 5 7 7 2 6 14 6 6 7 1 11 7 24 20 16 14 9 18 18
19 17 15 16 16 14 10 8 5 4 2 2 1 0 2 1 3 3 5 7 9 14 13 16 10 12 8 6 7 8 3 14 8 7 2 1 6 15 25 12 21 22 11 18 18
17 18 15 13 14 11 12 6 3 2 2 4 3 1 2 3 3 3 5 8 8 15 17 18 9 15 4 4 13 8 7 7 8 7 2 6 7 6 44 27 28 23 14 11 19
21 18 17 13 9 9 8 8 4 1 0 1 2 4 1 3 3 4 2 7 12 11 21 18 18 21 2 3 8 4 5 5 8 18 6 13 10 10 34 22 28 26 19 13 13
20 19 18 13 10 7 9 6 4 2 1 1 4 4 2 3 4 6 2 6 12 15 22 14 21 6 4 6 4 5 7 6 8 17 8 7 4 15 14 22 26 33 26 13 12
19 20 17 13 10 5 8 3 2 2 1 1 2 3 3 4 9 2 4 2 2 9 17 15 12 4 3 5 15 11 5 3 6 12 8 13 7 5 9 17 31 30 25 18 15
20 20 18 13 8 4 5 2 2 1 4 1 2 1 4 8 5 3 6 1 5 8 8 18 2 19 18 4 1 8 6 7 3 10 15 15 9 4 18 16 32 34 27 23 17
20 20 19 12 5 3 2 3 4 2 1 2 7 8 6 6 1 4 6 4 4 10 7 5 3 10 8 5 4 9 6 4 2 10 8 8 4 9 8 16 26 36 35 32 23
21 20 18 7 3 3 1 3 4 3 2 2 2 2 2 3 2 3 6 8 1 5 5 5 2 10 7 4 5 3 8 5 5 4 3 8 5 8 16 32 29 28 22 20 24
19 19 13 2 3 3 2 3 2 2 2 2 1 1 1 1 1 2 5 2 4 3 4 2 6 14 11 5 4 4 5 6 8 5 4 5 4 13 19 19 17 33 31 26 16
19 18 8 3 3 2 1 4 2 1 2 2 2 0 1 1 3 1 3 2 6 4 2 3 15 9 12 8 3 3 5 5 3 4 2 1 2 4 5 15 24 30 28 29 23
18 14 2 1 6 3 3 3 2 5 2 2 2 4 3 1 2 4 2 3 5 4 1 3 12 1 4 3 3 6 6 7 5 3 1 5 4 5 7 7 4 14 29 32 27
15 4 3 3 4 5 5 2 4 5 1 1 2 4 3 4 4 4 2 2 3 3 3 7 4 2 4 7 4 5 6 2 2 0 4 2 6 11 3 6 6 9 13 24 28
7 4 5 4 5 7 4 3 7 4 3 1 0 8 3 8 3 6 5 3 3 5 4 4 6 2 3 4 6 3 3 4 5 4 3 3 6 5 5 9 14 16 14 11 24
2 5 5 3 4 5 3 4 6 4 2 2 0 2 2 1 3 5 7 6 6 9 1 4 4 2 5 2 2 4 3 3 6 3 3 4 6 8 7 8 9 12 11 17 27
7 5 4 3 4 3 3 2 2 3 2 2 1 4 2 3 3 3 2 2 2 2 1 1 6 3 3 2 5 3 5 2 3 3 4 4 5 5 5 6 6 7 12 17 26
5 3 2 3 3 1 2 4 4 6 4 2 2 2 1 4 3 3 2 1 3 3 6 2 3 3 3 3 5 2 2 2 3 4 4 2 5 5 5 7 8 8 12 19 27
2 1 1 1 2 1 1 3 1 1 3 2 1 0 2 1 4 6 3 2 4 9 4 2 4 3 2 3 3 3 5 5 4 4 1 2 6 2 6 8 8 6 13 20 24
1 2 1 1 1 2 3 1 1 1 1 1 1 3 2 2 3 1 1 2 7 7 7 6 2 4 1 1 2 4 4 3 4 3 6 4 5 1 6 1 1 8 16 23 23
1 1 1 1 3 2 3 3 3 1 3 2 2 2 3 3 5 2 2 3 4 2 3 5 3 5 7 5 3 6 8 10 6 6 4 9 6 6 5 3 3 9 18 22 22
4 1 1 2 3 3 1 4 4 4 3 5 3 4 2 2 2 2 2 1 3 4 3 3 3 3 3 2 3 3 10 14 20 19 10 6 15 13 8 6 12 14 20 24 23
3 2 1 1 5 2 3 3 4 5 4 4 4 5 4 3 2 3 4 2 2 2 2 2 2 3 2 3 5 5 8 13 18 17 17 21 21 6 9 8 8 16 20 23 23
5 3 1 3 3 1 2 2 2 4 5 7 3 2 4 2 4 5 3 1 2 6 3 2 4 3 3 3 3 6 9 13 10 13 16 15 25 4 6 8 17 20 25 26 24
Wind_Direction
350 339 336 330 334 328 319 308 308 293 276 265 268 276 277 265 253 239 240 241 211 195 213 198 209 191 198 198 190 225 125 162 174 159 170 31 39 359 357 356 299 255 184 171 158
339 337 340 341 340 334 329 315 308 297 284 266 270 275 274 268 266 253 244 234 212 217 232 206 199 190 184 209 204 171 201 221 178 129 112 72 62 355 358 338 18 350 168 155 165
339 340 340 345 349 347 343 333 323 315 263 275 269 278 268 272 293 275 235 214 206 219 229 215 193 190 194 172 184 198 204 185 167 156 79 54 30 2 3 17 22 335 251 165 169
338 335 340 345 349 356 352 351 353 359 297 261 274 280 276 207 212 101 40 191 195 203 210 222 175 182 204 178 186 169 263 201 149 106 86 54 342 343 335 267 330 325 246 179 180
339 337 341 340 346 349 5 16 22 15 27 341 290 291 183 213 254 246 42 165 196 204 211 217 182 182 181 172 147 211 191 207 203 170 96 352 1 350 291 297 324 346 246 198 193
341 335 336 339 345 352 355 357 16 44 61 74 37 219 192 237 331 312 238 175 176 208 224 212 192 176 206 178 174 181 186 172 163 215 141 41 339 349 280 287 317 339 283 212 207
342 333 334 334 337 349 1 350 10 48 59 61 49 20 286 277 318 304 255 214 224 200 221 220 180 188 177 134 187 138 99 99 148 168 240 77 291 240 256 284 304 314 293 215 210
336 335 334 331 322 332 341 342 307 328 34 88 8 345 283 2 32 283 299 204 235 225 219 211 196 194 187 155 158 120 102 128 165 147 153 147 264 234 256 279 294 295 293 213 204
332 337 334 329 317 325 319 316 306 268 236 265 332 340 51 67 17 358 253 230 211 201 198 212 205 183 166 124 90 212 169 161 165 162 141 179 207 240 254 255 277 283 273 237 195
336 332 336 324 316 304 314 304 264 234 203 284 297 346 37 0 340 324 208 310 277 174 172 194 189 157 138 174 190 178 108 191 135 177 155 184 232 197 205 240 269 267 264 243 209
332 331 333 325 307 278 304 182 155 118 231 248 310 299 320 321 333 120 176 114 319 217 162 213 147 188 187 124 107 117 114 137 186 180 185 196 202 201 169 241 273 272 260 245 221
332 328 329 323 280 259 281 220 204 176 133 259 267 266 277 302 351 147 167 67 270 141 358 178 192 199 127 205 107 121 131 153 80 166 171 198 175 231 188 217 237 252 260 252 233
331 326 332 320 240 210 215 214 168 147 96 276 251 215 209 263 331 152 171 139 206 106 348 184 258 166 150 170 125 92 140 160 143 112 8 149 196 196 231 225 240 244 247 249 243
328 327 334 347 175 205 214 199 191 130 70 264 208 282 130 201 348 131 158 118 49 99 322 30 167 163 161 136 126 102 155 138 142 132 184 173 252 214 221 234 231 247 241 240 241
331 330 339 177 159 110 32 152 97 120 77 173 161 190 273 46 130 185 197 53 115 149 245 76 159 171 162 157 139 149 143 119 95 92 117 309 217 215 145 229 234 239 247 244 235
333 329 21 141 168 157 122 160 134 45 350 159 137 148 134 16 49 139 277 94 127 87 40 332 164 28 141 91 85 147 88 53 50 73 298 205 182 241 193 216 265 238 238 241 233
337 347 81 118 148 157 148 213 32 67 208 291 179 176 161 175 135 163 187 70 84 96 168 127 142 114 84 92 16 75 78 70 61 244 223 307 204 249 253 218 221 248 255 237 222
343 104 87 109 122 140 178 46 67 230 253 154 26 158 198 173 106 109 152 160 179 204 135 151 137 65 2 122 157 127 145 151 173 189 234 340 237 256 237 283 250 248 250 244 214
131 119 80 104 143 154 181 52 190 206 198 98 27 84 107 96 114 183 185 178 205 197 124 125 77 117 66 57 75 173 184 165 104 6 61 230 292 286 290 276 287 272 231 207 196
157 133 83 89 158 167 86 236 210 211 197 201 136 166 99 121 116 178 158 160 223 159 43 129 98 8 90 136 45 109 157 109 5 137 255 289 279 240 294 305 277 260 238 197 187
168 177 88 60 155 175 145 233 227 231 193 196 74 14 103 159 157 161 147 182 168 104 63 111 84 112 110 198 182 123 141 72 127 153 194 284 263 214 246 271 278 247 222 197 181
175 58 53 96 194 157 203 208 214 186 198 259 219 204 15 133 24 15 86 87 162 124 131 200 115 118 175 303 286 232 189 155 143 227 27 139 268 187 261 275 275 217 195 186 183
73 144 139 221 104 337 307 316 264 305 227 222 328 82 8 31 82 107 98 65 160 153 165 181 137 109 55 257 333 226 173 131 115 84 200 168 256 357 318 312 166 184 188 187 190
25 38 133 153 48 83 11 357 358 36 321 326 320 10 82 53 12 132 93 13 122 147 124 115 122 154 183 200 138 199 206 205 186 227 163 229 284 290 309 328 236 211 199 197 198
55 79 70 295 18 17 355 360 342 25 4 24 22 30 359 65 68 79 61 75 65 129 66 104 141 130 258 243 140 241 206 202 213 227 220 244 233 248 262 246 238 228 207 201 201
70 64 54 348 316 271 12 25 39 337 16 353 66 328 14 77 22 210 143 192 188 54 91 15 122 114 275 180 203 248 224 213 224 229 247 253 272 236 267 275 240 219 208 207 210
56 48 39 12 355 347 28 20 34 345 65 69 316 28 47 43 346 314 220 178 168 150 129 98 132 106 263 344 323 290 215 200 218 223 225 231 242 161 232 235 243 215 208 215 217
Height
1507 1504 1500 1496 1492 1488 1485 1482 1480 1479 1478 1479 1479 1480 1481 1481 1481 1481 1481 1486 1489 1491 1492 1493 1496 1498 1501 1502 1506 1506 1510 1514 1518 1520 1518 1520 1518 1519 1519 1518 1516 1516 1516 1516 1519
1505 1502 1499 1494 1489 1485 1481 1478 1476 1476 1476 1477 1477 1478 1479 1479 1479 1479 1481 1483 1485 1488 1491 1492 1493 1497 1500 1501 1503 1504 1504 1507 1509 1513 1516 1520 1519 1521 1520 1517 1518 1518 1516 1516 1520
1503 1500 1496 1492 1488 1483 1479 1476 1474 1473 1473 1476 1476 1476 1477 1478 1479 1478 1477 1480 1483 1487 1489 1490 1493 1496 1499 1500 1502 1503 1503 1508 1509 1511 1515 1520 1521 1522 1523 1521 1523 1525 1523 1517 1520
1501 1498 1496 1491 1488 1483 1479 1475 1473 1471 1472 1473 1474 1475 1476 1478 1480 1475 1474 1476 1481 1485 1488 1489 1491 1495 1497 1498 1499 1504 1502 1505 1508 1512 1516 1521 1523 1521 1523 1524 1525 1522 1522 1521 1521
1500 1498 1495 1491 1487 1483 1480 1477 1475 1473 1473 1473 1473 1474 1476 1478 1476 1475 1475 1476 1479 1483 1487 1489 1491 1494 1497 1496 1498 1501 1504 1506 1507 1514 1518 1520 1524 1524 1517 1522 1523 1520 1521 1522 1523
1499 1496 1493 1491 1487 1484 1481 1478 1476 1475 1474 1473 1473 1474 1476 1478 1476 1475 1476 1477 1479 1482 1485 1488 1491 1494 1497 1495 1498 1498 1500 1502 1510 1513 1520 1522 1526 1525 1513 1520 1521 1521 1521 1524 1524
1498 1493 1491 1489 1487 1484 1482 1480 1477 1476 1475 1474 1474 1474 1475 1477 1475 1475 1476 1478 1477 1480 1483 1486 1491 1494 1494 1496 1497 1499 1505 1510 1512 1517 1519 1524 1529 1527 1514 1521 1521 1521 1522 1524 1524
1496 1491 1489 1486 1485 1483 1482 1480 1479 1477 1476 1476 1475 1474 1474 1476 1475 1474 1476 1475 1476 1479 1481 1487 1490 1493 1494 1495 1497 1502 1506 1513 1514 1516 1524 1526 1527 1525 1519 1523 1521 1522 1524 1522 1523
1494 1491 1487 1485 1483 1483 1481 1480 1479 1478 1477 1477 1477 1475 1475 1476 1476 1475 1475 1475 1475 1478 1481 1486 1489 1493 1494 1496 1504 1502 1506 1509 1513 1509 1518 1521 1522 1518 1521 1522 1522 1522 1523 1523 1522
1491 1488 1485 1482 1482 1481 1479 1479 1479 1478 1478 1478 1477 1478 1476 1477 1476 1475 1475 1474 1476 1476 1482 1486 1487 1491 1493 1495 1492 1495 1507 1504 1506 1509 1514 1518 1516 1518 1519 1522 1523 1520 1520 1521 1520
1489 1485 1482 1479 1479 1478 1478 1479 1482 1481 1479 1479 1478 1476 1476 1475 1475 1475 1476 1476 1476 1474 1478 1484 1485 1481 1481 1489 1489 1497 1503 1508 1505 1508 1513 1513 1513 1517 1520 1526 1520 1515 1516 1519 1518
1486 1482 1478 1476 1475 1476 1477 1478 1477 1478 1478 1478 1477 1477 1476 1474 1475 1476 1476 1478 1479 1472 1482 1481 1483 1486 1487 1489 1490 1495 1504 1508 1504 1503 1509 1512 1516 1520 1522 1525 1523 1515 1511 1511 1514
1483 1479 1475 1473 1474 1475 1475 1476 1475 1476 1477 1477 1475 1475 1477 1475 1474 1475 1476 1479 1479 1479 1484 1477 1481 1483 1487 1491 1494 1497 1503 1505 1507 1508 1510 1513 1519 1522 1516 1515 1514 1511 1508 1508 1509
1479 1476 1474 1474 1476 1474 1475 1475 1476 1475 1479 1479 1476 1476 1477 1476 1476 1475 1476 1478 1478 1481 1483 1480 1483 1483 1488 1492 1494 1500 1497 1501 1506 1510 1519 1507 1521 1511 1505 1504 1505 1502 1502 1504 1505
1477 1474 1473 1472 1474 1475 1476 1474 1476 1476 1475 1478 1477 1476 1475 1477 1479 1477 1477 1476 1479 1485 1488 1480 1486 1486 1487 1491 1492 1498 1498 1501 1504 1511 1510 1511 1519 1501 1503 1502 1491 1489 1493 1497 1501
1475 1472 1472 1473 1474 1475 1475 1475 1475 1488 1487 1474 1474 1475 1476 1477 1478 1478 1477 1479 1480 1483 1486 1485 1486 1486 1488 1492 1492 1495 1501 1505 1512 1516 1524 1514 1517 1499 1498 1491 1487 1485 1487 1490 1495
1472 1470 1471 1472 1474 1475 1476 1478 1487 1483 1474 1474 1473 1473 1474 1476 1480 1480 1475 1474 1477 1482 1485 1485 1487 1489 1488 1495 1495 1497 1505 1527 1527 1531 1523 1517 1516 1487 1484 1485 1483 1482 1481 1483 1489
1470 1471 1471 1473 1473 1475 1478 1480 1484 1472 1472 1469 1468 1471 1470 1473 1476 1479 1479 1478 1480 1485 1482 1479 1485 1489 1491 1494 1498 1500 1503 1525 1520 1527 1520 1516 1508 1487 1476 1475 1476 1478 1480 1481 1484
1470 1471 1472 1472 1473 1474 1476 1490 1478 1476 1471 1467 1467 1467 1466 1465 1470 1475 1480 1480 1477 1475 1478 1482 1487 1492 1493 1494 1496 1504 1509 1510 1530 1537 1540 1513 1499 1486 1475 1475 1475 1475 1476 1476 1480
1470 1472 1471 1472 1472 1473 1478 1476 1477 1468 1468 1468 1468 1466 1469 1468 1468 1471 1472 1472 1473 1474 1473 1480 1486 1493 1494 1495 1499 1499 1504 1511 1533 1535 1528 1512 1508 1494 1480 1475 1476 1474 1474 1475 1479
1471 1472 1472 1471 1472 1473 1483 1478 1470 1467 1466 1467 1465 1462 1464 1467 1469 1469 1471 1472 1471 1473 1474 1478 1483 1497 1495 1497 1499 1502 1505 1509 1512 1519 1514 1514 1500 1483 1480 1476 1474 1471 1473 1476 1478
1470 1473 1471 1471 1473 1472 1473 1467 1467 1468 1467 1466 1465 1464 1463 1463 1464 1463 1465 1468 1469 1469 1477 1478 1487 1493 1493 1496 1496 1495 1498 1504 1519 1521 1534 1526 1504 1476 1477 1474 1471 1469 1472 1476 1481
1470 1471 1471 1471 1476 1473 1468 1468 1467 1467 1467 1466 1464 1462 1463 1465 1469 1469 1468 1468 1469 1472 1478 1479 1493 1499 1501 1499 1497 1495 1494 1498 1508 1517 1529 1519 1494 1475 1474 1471 1469 1472 1474 1477 1481
1471 1474 1471 1471 1471 1470 1471 1470 1468 1468 1468 1466 1465 1463 1462 1467 1469 1471 1470 1469 1469 1471 1471 1473 1486 1489 1498 1492 1490 1493 1489 1493 1504 1498 1505 1496 1488 1477 1474 1472 1472 1472 1474 1477 1481
1471 1476 1476 1477 1474 1473 1474 1472 1470 1469 1469 1468 1469 1468 1467 1466 1469 1473 1472 1472 1472 1472 1473 1476 1487 1490 1486 1485 1491 1488 1486 1486 1491 1488 1489 1478 1480 1473 1472 1471 1469 1471 1474 1476 1478
1473 1475 1476 1477 1475 1475 1473 1475 1473 1472 1472 1472 1471 1472 1467 1467 1470 1470 1472 1472 1471 1474 1476 1478 1490 1490 1490 1486 1490 1488 1487 1485 1484 1483 1481 1479 1473 1469 1468 1468 1467 1466 1470 1472 1474
1473 1474 1475 1478 1476 1475 1478 1477 1474 1473 1473 1473 1473 1471 1472 1471 1470 1469 1469 1470 1470 1473 1478 1481 1488 1494 1496 1489 1486 1486 1475 1477 1475 1472 1473 1478 1455 1464 1464 1464 1462 1462 1464 1468 1471